AZG25Q CYMX-KORD

Flight info

Callsign AZG25Q
Flight time N/A
Altitude 37000
Route YUL Q824 FNT WYNDE3
Aircraft B77L/H-SDE1E2E3FGHIJ2J3J4J5M1RWXY/LB1D1

Departure

Time 2026-05-08 09:13
Airport Montreal Mirabel International Airport (CYMX)

Arrival

Time N/A
Airport Chicago O'Hare International Airport (KORD)
Time Latitude Longitude Altitude Speed Heading
2026-05-08 08:59 45.67867 -74.04369 277 ft 0 kts 313°
2026-05-08 09:07 45.67869 -74.04359 277 ft 4 kts 283°
2026-05-08 09:07 45.67866 -74.04351 277 ft 4 kts 272°
2026-05-08 09:07 45.67866 -74.04335 282 ft 4 kts 247°
2026-05-08 09:07 45.67883 -74.04311 279 ft 4 kts 199°
2026-05-08 09:08 45.67903 -74.04303 279 ft 1 kts 188°
2026-05-08 09:08 45.67906 -74.04303 277 ft 0 kts 188°
2026-05-08 09:09 45.67904 -74.04303 277 ft 1 kts 188°
2026-05-08 09:10 45.67874 -74.04307 277 ft 8 kts 183°
2026-05-08 09:10 45.67797 -74.04310 277 ft 14 kts 181°
2026-05-08 09:10 45.67676 -74.04313 277 ft 20 kts 181°
2026-05-08 09:10 45.67517 -74.04334 277 ft 26 kts 190°
2026-05-08 09:11 45.67329 -74.04374 277 ft 27 kts 188°
2026-05-08 09:11 45.67183 -74.04342 277 ft 20 kts 121°
2026-05-08 09:11 45.67122 -74.04163 278 ft 22 kts 157°
2026-05-08 09:11 45.66953 -74.04176 278 ft 26 kts 186°
2026-05-08 09:12 45.66773 -74.04212 279 ft 28 kts 190°
2026-05-08 09:12 45.66624 -74.04274 277 ft 16 kts 221°
2026-05-08 09:12 45.66609 -74.04371 277 ft 0 kts 276°
2026-05-08 09:13 45.66646 -74.04737 277 ft 75 kts 278°
2026-05-08 09:13 45.66753 -74.05790 271 ft 136 kts 278°
2026-05-08 09:13 45.66911 -74.07351 327 ft 174 kts 278°
2026-05-08 09:13 45.67067 -74.08989 1068 ft 157 kts 277°
2026-05-08 09:14 45.67153 -74.10565 1652 ft 162 kts 270°
2026-05-08 09:14 45.66940 -74.12210 2030 ft 178 kts 258°
2026-05-08 09:14 45.66667 -74.14048 2281 ft 201 kts 262°
2026-05-08 09:14 45.66404 -74.16150 2516 ft 228 kts 262°
2026-05-08 09:15 45.66121 -74.18472 3045 ft 242 kts 262°
2026-05-08 09:15 45.65830 -74.20865 3847 ft 246 kts 261°
2026-05-08 09:15 45.65537 -74.23286 4740 ft 248 kts 261°
2026-05-08 09:15 45.65243 -74.25716 5623 ft 249 kts 261°
2026-05-08 09:16 45.64947 -74.28158 6484 ft 250 kts 261°
2026-05-08 09:16 45.64647 -74.30631 7264 ft 254 kts 261°
2026-05-08 09:16 45.64344 -74.33128 8046 ft 257 kts 261°
2026-05-08 09:16 45.64036 -74.35656 8844 ft 260 kts 261°
2026-05-08 09:17 45.63725 -74.38213 9639 ft 263 kts 261°
2026-05-08 09:17 45.63408 -74.40814 10281 ft 270 kts 261°
2026-05-08 09:17 45.63077 -74.43533 10507 ft 294 kts 261°
2026-05-08 09:17 45.62707 -74.46570 10721 ft 319 kts 261°
2026-05-08 09:18 45.62315 -74.49773 11018 ft 339 kts 261°
2026-05-08 09:18 45.61900 -74.53144 11709 ft 349 kts 261°
2026-05-08 09:18 45.61474 -74.56586 12617 ft 354 kts 261°
2026-05-08 09:18 45.61042 -74.60071 13592 ft 358 kts 261°
2026-05-08 09:19 45.60605 -74.63589 14449 ft 362 kts 261°
2026-05-08 09:19 45.60161 -74.67151 15260 ft 367 kts 261°
2026-05-08 09:19 45.59711 -74.70757 16069 ft 372 kts 261°
2026-05-08 09:19 45.59254 -74.74410 16864 ft 376 kts 261°
2026-05-08 09:20 45.58789 -74.78118 17664 ft 381 kts 261°
2026-05-08 09:20 45.58318 -74.81863 18410 ft 386 kts 261°
2026-05-08 09:20 45.57846 -74.85611 19073 ft 390 kts 261°
2026-05-08 09:20 45.57361 -74.89445 19729 ft 395 kts 261°
2026-05-08 09:21 45.56869 -74.93323 20379 ft 400 kts 261°
2026-05-08 09:21 45.56370 -74.97243 21031 ft 404 kts 261°
2026-05-08 09:22 45.53234 -75.21656 24645 ft 428 kts 261°
2026-05-08 09:23 45.52689 -75.25851 25196 ft 431 kts 261°
2026-05-08 09:23 45.52146 -75.30019 25715 ft 434 kts 261°
2026-05-08 09:23 45.51591 -75.34271 26232 ft 438 kts 261°
2026-05-08 09:23 45.51029 -75.38559 26743 ft 441 kts 260°
2026-05-08 09:24 45.50462 -75.42879 27251 ft 445 kts 260°
2026-05-08 09:24 45.49888 -75.47230 27752 ft 448 kts 260°
2026-05-08 09:24 45.49309 -75.51608 28231 ft 451 kts 260°
2026-05-08 09:24 45.48724 -75.56027 28698 ft 455 kts 260°
2026-05-08 09:25 45.48134 -75.60461 29138 ft 458 kts 260°
2026-05-08 09:25 45.47538 -75.64927 29557 ft 461 kts 260°
2026-05-08 09:25 45.46934 -75.69436 29978 ft 463 kts 260°
2026-05-08 09:25 45.46331 -75.73925 30497 ft 460 kts 260°
2026-05-08 09:26 45.45730 -75.78392 31036 ft 457 kts 260°
2026-05-08 09:26 45.45130 -75.82839 31471 ft 457 kts 260°
2026-05-08 09:26 45.44528 -75.87287 31867 ft 458 kts 260°
2026-05-08 09:26 45.43935 -75.91738 32284 ft 457 kts 261°
2026-05-08 09:27 45.43410 -75.96195 32739 ft 456 kts 262°
2026-05-08 09:27 45.42919 -76.00654 33166 ft 455 kts 262°
2026-05-08 09:27 45.42437 -76.05054 33558 ft 455 kts 262°
2026-05-08 09:27 45.41941 -76.09499 33947 ft 455 kts 262°
2026-05-08 09:28 45.41435 -76.13940 34263 ft 454 kts 261°
2026-05-08 09:28 45.40923 -76.18384 34560 ft 454 kts 261°
2026-05-08 09:28 45.40395 -76.22810 34864 ft 454 kts 259°
2026-05-08 09:28 45.39671 -76.27188 35153 ft 455 kts 254°
2026-05-08 09:29 45.38680 -76.31460 35442 ft 455 kts 252°
2026-05-08 09:29 45.37668 -76.35733 35728 ft 455 kts 253°
2026-05-08 09:29 45.36667 -76.39994 35988 ft 455 kts 253°
2026-05-08 09:29 45.35668 -76.44268 36245 ft 455 kts 253°
2026-05-08 09:30 45.34673 -76.48526 36583 ft 453 kts 253°
2026-05-08 09:30 45.33681 -76.52772 36811 ft 454 kts 253°
2026-05-08 09:30 45.32683 -76.57039 36843 ft 455 kts 253°
2026-05-08 09:31 45.30691 -76.65522 36889 ft 449 kts 253°
2026-05-08 09:31 45.28719 -76.73884 36899 ft 445 kts 253°
2026-05-08 09:32 45.26760 -76.82168 36902 ft 445 kts 253°
2026-05-08 09:32 45.24784 -76.90488 36906 ft 445 kts 253°
2026-05-08 09:33 45.22797 -76.98813 36907 ft 446 kts 253°
2026-05-08 09:33 45.20802 -77.07151 36899 ft 446 kts 253°
2026-05-08 09:34 45.18801 -77.15486 36913 ft 447 kts 253°
2026-05-08 09:34 45.16790 -77.23836 36911 ft 448 kts 253°
2026-05-08 09:35 45.14768 -77.32199 36912 ft 448 kts 253°
2026-05-08 09:35 45.12739 -77.40556 36915 ft 449 kts 253°
2026-05-08 09:36 45.10713 -77.48874 36911 ft 449 kts 252°
2026-05-08 09:36 45.08666 -77.57243 36904 ft 449 kts 253°
2026-05-08 09:37 45.06618 -77.65588 36914 ft 449 kts 253°
2026-05-08 09:37 45.04563 -77.73930 36914 ft 449 kts 253°
2026-05-08 09:38 45.02853 -77.80851 36918 ft 448 kts 252°
2026-05-08 09:38 45.00792 -77.89161 36920 ft 448 kts 252°
2026-05-08 09:39 44.98727 -77.97456 36918 ft 448 kts 252°
2026-05-08 09:39 44.96654 -78.05757 36925 ft 448 kts 252°
2026-05-08 09:40 44.94576 -78.14046 36913 ft 447 kts 252°
2026-05-08 09:40 44.92496 -78.22311 36923 ft 446 kts 252°
2026-05-08 09:41 44.90429 -78.30497 36930 ft 446 kts 252°
2026-05-08 09:41 44.88342 -78.38735 36931 ft 446 kts 252°
2026-05-08 09:42 44.86249 -78.46968 36928 ft 446 kts 252°
2026-05-08 09:42 44.84147 -78.55206 36924 ft 446 kts 252°
2026-05-08 09:43 44.82039 -78.63438 36928 ft 447 kts 252°
2026-05-08 09:43 44.79926 -78.71668 36921 ft 447 kts 252°
2026-05-08 09:44 44.77781 -78.79877 36930 ft 447 kts 250°
2026-05-08 09:44 44.75048 -78.87766 36939 ft 449 kts 245°
2026-05-08 09:45 44.72180 -78.95564 36929 ft 449 kts 245°
2026-05-08 09:45 44.69335 -79.03328 36936 ft 450 kts 246°
2026-05-08 09:46 44.66474 -79.11155 36907 ft 450 kts 246°
2026-05-08 09:46 44.63615 -79.18966 36921 ft 449 kts 246°
2026-05-08 09:47 44.60755 -79.26760 36934 ft 449 kts 246°
2026-05-08 09:47 44.57890 -79.34545 36932 ft 448 kts 246°
2026-05-08 09:48 44.55021 -79.42314 36937 ft 448 kts 246°
2026-05-08 09:48 44.52168 -79.50021 36937 ft 448 kts 246°
2026-05-08 09:49 44.49290 -79.57775 36932 ft 448 kts 246°
2026-05-08 09:49 44.46410 -79.65509 36937 ft 448 kts 246°
2026-05-08 09:50 44.43524 -79.73240 36942 ft 448 kts 246°
2026-05-08 09:50 44.40629 -79.80972 36936 ft 449 kts 246°
2026-05-08 09:51 44.37724 -79.88711 36943 ft 449 kts 246°
2026-05-08 09:51 44.34833 -79.96391 36948 ft 450 kts 246°
2026-05-08 09:52 44.31907 -80.04141 36941 ft 450 kts 246°
2026-05-08 09:52 44.28980 -80.11874 36941 ft 451 kts 246°
2026-05-08 09:53 44.26041 -80.19615 36945 ft 451 kts 246°
2026-05-08 09:53 44.23097 -80.27349 36945 ft 452 kts 246°
2026-05-08 09:54 44.20166 -80.35028 36915 ft 452 kts 246°
2026-05-08 09:54 44.17211 -80.42745 36939 ft 451 kts 246°
2026-05-08 09:55 44.14252 -80.50455 36943 ft 450 kts 246°
2026-05-08 09:55 44.11294 -80.58138 36944 ft 450 kts 246°
2026-05-08 09:56 44.08334 -80.65809 36942 ft 449 kts 246°
2026-05-08 09:56 44.05371 -80.73467 36940 ft 449 kts 246°
2026-05-08 09:57 44.00945 -80.84863 36939 ft 448 kts 246°
2026-05-08 09:57 43.97985 -80.92459 36935 ft 447 kts 246°
2026-05-08 09:58 43.95017 -81.00058 36939 ft 446 kts 246°
2026-05-08 09:58 43.92052 -81.07627 36940 ft 446 kts 246°
2026-05-08 09:59 43.89088 -81.15173 36941 ft 446 kts 246°
2026-05-08 09:59 43.86122 -81.22706 36938 ft 444 kts 246°
2026-05-08 10:00 43.83159 -81.30208 36932 ft 443 kts 246°
2026-05-08 10:00 43.80199 -81.37685 36943 ft 442 kts 246°
2026-05-08 10:01 43.77240 -81.45145 36941 ft 442 kts 246°
2026-05-08 10:01 43.74278 -81.52592 36944 ft 442 kts 246°
2026-05-08 10:02 43.71299 -81.60019 36924 ft 442 kts 245°
2026-05-08 10:02 43.68305 -81.67358 36931 ft 441 kts 246°
2026-05-08 10:03 43.65289 -81.74735 36938 ft 440 kts 246°
2026-05-08 10:03 43.62283 -81.82085 36944 ft 440 kts 246°
2026-05-08 10:04 43.59272 -81.89432 36945 ft 439 kts 246°
2026-05-08 10:04 43.56366 -81.96507 36951 ft 439 kts 245°
2026-05-08 10:05 43.53358 -82.03810 36952 ft 438 kts 246°
2026-05-08 10:05 43.50355 -82.11088 36952 ft 437 kts 246°
2026-05-08 10:06 43.47364 -82.18301 36953 ft 436 kts 245°
2026-05-08 10:06 43.44446 -82.25515 36954 ft 434 kts 247°
2026-05-08 10:07 43.41602 -82.32710 36956 ft 433 kts 247°
2026-05-08 10:07 43.38651 -82.40133 36952 ft 433 kts 246°
2026-05-08 10:08 43.35748 -82.47383 36946 ft 432 kts 247°
2026-05-08 10:08 43.32856 -82.54587 36953 ft 432 kts 247°
2026-05-08 10:09 43.29953 -82.61801 36949 ft 432 kts 247°
2026-05-08 10:09 43.27049 -82.69006 36946 ft 431 kts 248°
2026-05-08 10:10 43.24664 -82.76432 36934 ft 426 kts 254°
2026-05-08 10:10 43.22564 -82.84046 36937 ft 426 kts 254°
2026-05-08 10:11 43.20442 -82.91638 36932 ft 426 kts 254°
2026-05-08 10:11 43.18308 -82.99218 36941 ft 426 kts 254°
2026-05-08 10:12 43.16177 -83.06760 36950 ft 426 kts 253°
2026-05-08 10:12 43.14045 -83.14286 36948 ft 426 kts 253°
2026-05-08 10:13 43.11894 -83.21855 36944 ft 426 kts 253°
2026-05-08 10:13 43.09743 -83.29403 36950 ft 426 kts 253°
2026-05-08 10:14 43.07576 -83.36981 36959 ft 427 kts 253°
2026-05-08 10:14 43.05440 -83.44435 36954 ft 427 kts 253°